Location: Sihaung
(22.8641°N, 94.0549°E)
Time: 11:36:51
(UTC+00:00)

Cosmos 407 Rocket - Pass Details

Date: 03 March 2021
Orbit: 744 x 786 km, 74.0° (Epoch: 13 April)

Event Time Altitude Azimuth Distance (km) Brightness Sun altitude
Rises 22:44:35 0° 189° (S) 3,229 6.6 -18.8°
Reaches altitude 10° 22:46:58 10° 187° (S) 2,298 5.9 -18.3°
Maximum altitude 22:52:10 73° 103° (ESE) 796 3.7 -17.1°
Drops below altitude 10° 22:57:19 10° 19° (NNE) 2,279 6.2 -15.9°
Sets 22:59:40 0° 18° (NNE) 3,200 6.9 -15.4°
